Regional Weather Roundup
Issued by NWS Portland, ME

Current Version | Previous Version | Text Only | Print | Product List | Glossary Off
Versions: 1 2 3 4 5 6 7 8 9 10 11 12 13 14 15 16 17 18 19 20 21 22 23 24 25 26 27 28 29 30 31 32 33 34 35 36 37 38 39 40 41 42 43 44 45 46 47 48 49 50

000
ASUS41 KGYX 280405
RWRGYX
WEATHER ROUNDUP FOR MAINE AND NEW HAMPSHIRE
NATIONAL WEATHER SERVICE GRAY ME
1200 AM EDT TUE JUL 28 2015

MEZ002-005-006-010-012-015-018-020-021-024-026-027-029-280500-
MAINE

CITY           SKY/WX    TMP DP  RH WIND       PRES   REMARKS
PORTLAND       MOCLDY    65  64  97 CALM      29.99F FOG
SANFORD        MOCLDY    63  57  82 CALM      30.00S
BAR HARBOR     CLOUDY    63  63 100 SW3       30.00F VSB 1/4
WISCASSET      FOG       63  63 100 CALM      30.01F VSB 1/4
ROCKLAND       CLOUDY    61  59  94 CALM      30.00S VSB 1/2
FRYEBURG       CLOUDY    67  66  97 CALM      30.00F
LEWISTONAUBURN CLOUDY    64  63  94 SE5       30.00S
AUGUSTA        CLOUDY    66  64  93 S7        30.00F
BANGOR         CLOUDY    64  63  96 S10       29.97F
GREENVILLE       N/A     62  60  93 NW3       30.00R
MILLINOCKET    CLOUDY    68  66  93 CALM      29.99R FOG
HOULTON        CLOUDY    67  65  93 S7        29.96S
PRESQUE ISLE   CLOUDY    64  61  88 CALM      29.94S
FRENCHVILLE    CLOUDY    60  59  96 S6        29.93F
CARIBOU        CLOUDY    63  61  93 S3        29.94S
$$

NHZ002-005-008-009-011-012-014-280500-
NEW HAMPSHIRE

CITY           SKY/WX    TMP DP  RH WIND       PRES   REMARKS
PORTSMOUTH     MOCLDY    67  65  91 SE3       29.98S
ROCHESTER      PTCLDY    67  65  93 CALM      29.99S
MANCHESTER     FAIR      71  68  90 CALM      29.98F
CONCORD        PTCLDY    70  67  90 SE3       29.99F
LACONIA        MOCLDY    72  64  78 CALM      29.99S
PLYMOUTH       FOG       66  66 100 CALM      29.99S VSB 3/4
BERLIN         CLOUDY    66  63  90 CALM      30.01F
WHITEFIELD     CLOUDY    68  65  90 CALM      30.01S
JAFFREY        PTCLDY    66  65  96 CALM      30.03F FOG
KEENE          PTCLDY    66  63  88 CALM      30.01F
LEBANON        PTCLDY    68  64  87 CALM      29.99S
MT WASHINGTON  FOG       54  54 100 W26         N/A  VSB 0
$$

VTZ005-007-008-280500-
VERMONT

CITY           SKY/WX    TMP DP  RH WIND       PRES   REMARKS
ST JOHNSBURY     N/A     69  65  86 MISG      29.98S
MONTPELIER     MOCLDY    65  60  84 CALM      30.04F
BURLINGTON     MOCLDY    72  66  81 CALM      29.96F
$$

MAZ007-012-024-CTZ003-RIZ002-NYZ038-NYZ072-280500-
SOUTHERN NEW ENGLAND AND NY

CITY           SKY/WX    TMP DP  RH WIND       PRES   REMARKS
BOSTON         PTCLDY    72  68  87 S7        30.00F
WORCESTER      CLEAR     69  66  90 SW10      30.04F
NANTUCKET      CLEAR     69  66  90 S8        30.05S
PROVIDENCE     CLEAR     69  67  93 S5        30.03F
HARTFORD       PTCLDY    74  67  78 S6        30.00F
ALBANY         PTCLDY    76  68  76 S7        29.99R
NEW YORK CITY  MOCLDY    78  67  68 SW6       30.01S
$$

ANZ081-ANZ082-ANZ150-NHZ014-MEZ023>029-280500-
COASTAL MARINE OBSERVATIONS

STATION/POSITION TIME  TEMP    WIND        PRES    WAVE
                       AIR SEA DIR/SP/G            HT/PER
                 (UTC) (F)     (DEG/KT/KT) (MB)    (FT/S)
MOUNT DESERT ROC 0400   63     170/ 12/ 12 1016.2F
MATINICUS ROCK   0300   61     130/  6/  6 1015.8F
ISLE OF SHOALS   0300   69     200/  5/  6 1015.4S
JEFFREYS LEDGE   0303      65                N/A     3/ 9
CASHES LEDGE BUO 0350   67                 1015.6S   3/ 8
GEORGES BANK BUO 0250   69 67  110/  6/  6 1018.0    3/ 8
$$

.............KEY..............
   WCI - WIND CHILL
   TC  - TEMPERATURE IN CELSIUS
   VSB - VISIBILITY IN MILES
   HX  - HEAT INDEX
   FAIR- INDICATES FEW OR NO CLOUDS BELOW 12,000 FT, WITH NO
         SIGNIFICANT WEATHER AND/OR OBSTRUCTIONS TO VISIBILITY.




USA.gov is the U.S. government's official web portal to all federal, state and local government web resources and services.